| time (UTC) | temp F | wind direction | speed MPH | gust MPH | rain 1hr in | rain 24hr in | rain mn in | humidity % | barometer mb |
| 20260506025558 | 47 | 0 | 0.0 | 0.0 | 0.10 | 0.36 | 0.36 | 91 | 1010.3 |
| 20260506025057 | 47 | 0 | 0.0 | 0.0 | 0.12 | 0.36 | 0.36 | 91 | 1010.6 |
| 20260506024556 | 47 | 0 | 0.0 | 0.0 | 0.11 | 0.35 | 0.35 | 91 | 1010.5 |
| 20260506024055 | 47 | 0 | 0.0 | 0.0 | 0.11 | 0.34 | 0.34 | 91 | 1010.8 |
| 20260506023556 | 47 | 0 | 0.0 | 0.0 | 0.11 | 0.33 | 0.33 | 91 | 1010.4 |
| 20260506023100 | 48 | 0 | 0.0 | 0.0 | 0.12 | 0.33 | 0.33 | 91 | 1010.6 |
| 20260506022557 | 48 | 0 | 0.0 | 0.0 | 0.12 | 0.32 | 0.32 | 90 | 1010.4 |
| 20260506022056 | 48 | 0 | 0.0 | 0.0 | 0.13 | 0.32 | 0.32 | 90 | 1010.4 |
| 20260506021558 | 48 | 0 | 0.0 | 0.0 | 0.14 | 0.31 | 0.31 | 90 | 1010.8 |
| 20260506021101 | 48 | 0 | 0.0 | 0.0 | 0.13 | 0.29 | 0.29 | 91 | 1010.8 |
| 20260506020556 | 47 | 0 | 0.0 | 0.0 | 0.14 | 0.28 | 0.28 | 90 | 1010.7 |
| 20260506020054 | 47 | 0 | 0.0 | 0.0 | 0.15 | 0.27 | 0.27 | 90 | 1010.5 |
| 20260506015559 | 47 | 0 | 0.0 | 0.0 | 0.15 | 0.26 | 0.26 | 90 | 1010.2 |
| 20260506015056 | 47 | 0 | 0.0 | 0.0 | 0.14 | 0.24 | 0.24 | 90 | 1010.6 |
| 20260506014559 | 47 | 0 | 0.0 | 0.0 | 0.14 | 0.24 | 0.24 | 89 | 1010.1 |
| 20260506014100 | 47 | 0 | 0.0 | 0.0 | 0.13 | 0.23 | 0.23 | 89 | 1010.0 |
| 20260506013555 | 47 | 0 | 0.0 | 0.0 | 0.13 | 0.22 | 0.22 | 89 | 1010.0 |
| 20260506013055 | 48 | 0 | 0.0 | 0.0 | 0.11 | 0.20 | 0.20 | 89 | 1010.1 |
| 20260506012557 | 48 | 0 | 0.0 | 0.0 | 0.12 | 0.20 | 0.20 | 89 | 1010.0 |
| 20260506012054 | 48 | 0 | 0.0 | 0.0 | 0.11 | 0.18 | 0.18 | 89 | 1009.9 |
| 20260506011554 | 48 | 0 | 0.0 | 0.0 | 0.10 | 0.17 | 0.17 | 89 | 1010.1 |
| 20260506011055 | 48 | 0 | 0.0 | 0.0 | 0.09 | 0.16 | 0.16 | 89 | 1009.7 |
| 20260506010555 | 48 | 0 | 0.0 | 0.0 | 0.09 | 0.14 | 0.14 | 88 | 1010.0 |
| 20260506010057 | 48 | 0 | 0.0 | 0.0 | 0.10 | 0.12 | 0.12 | 88 | 1010.0 |
| 20260506005558 | 48 | 0 | 0.0 | 0.0 | 0.10 | 0.11 | 0.11 | 88 | 1009.8 |
| 20260506005056 | 48 | 0 | 0.0 | 0.0 | 0.09 | 0.10 | 0.10 | 88 | 1009.8 |
| 20260506004558 | 48 | 0 | 0.0 | 0.0 | 0.09 | 0.10 | 0.10 | 87 | 1009.9 |
| 20260506004054 | 48 | 0 | 0.0 | 0.0 | 0.09 | 0.10 | 0.10 | 87 | 1009.9 |
| 20260506003556 | 48 | 0 | 0.0 | 0.0 | 0.08 | 0.09 | 0.09 | 87 | 1010.0 |
| 20260506003056 | 48 | 0 | 0.0 | 0.0 | 0.08 | 0.09 | 0.09 | 86 | 1010.0 |
| 20260506002556 | 48 | 0 | 0.0 | 1.0 | 0.07 | 0.08 | 0.08 | 86 | 1010.1 |
| 20260506002057 | 48 | 0 | 0.0 | 1.0 | 0.06 | 0.07 | 0.07 | 85 | 1009.9 |
| 20260506001620 | 48 | 0 | 0.0 | 3.0 | 0.06 | 0.07 | 0.07 | 85 | 1009.8 |
| 20260506001057 | 49 | 0 | 0.0 | 4.0 | 0.06 | 0.07 | 0.07 | 83 | 1009.3 |
| 20260506000557 | 49 | 0 | 1.0 | 4.0 | 0.04 | 0.05 | 0.05 | 82 | 1009.5 |
| 20260505235557 | 51 | 340 | 3.0 | 6.0 | 0.00 | 0.01 | 0.01 | 76 | 1009.5 |
| 20260505235059 | 52 | 336 | 3.0 | 8.0 | 0.00 | 0.01 | 0.01 | 72 | 1009.4 |
| 20260505234559 | 53 | 333 | 2.0 | 8.0 | 0.00 | 0.01 | 0.01 | 69 | 1009.3 |
| 20260505234059 | 53 | 323 | 2.0 | 8.0 | 0.00 | 0.01 | 0.01 | 68 | 1009.1 |
| 20260505233554 | 54 | 16 | 3.0 | 9.0 | 0.00 | 0.01 | 0.01 | 66 | 1008.7 |
| 20260505233058 | 54 | 309 | 4.0 | 9.0 | 0.00 | 0.01 | 0.01 | 65 | 1008.4 |
| 20260505232555 | 55 | 287 | 4.0 | 9.0 | 0.00 | 0.01 | 0.01 | 64 | 1008.2 |
| 20260505232055 | 56 | 41 | 3.0 | 9.0 | 0.00 | 0.01 | 0.01 | 64 | 1008.2 |
| 20260505231559 | 57 | 46 | 1.0 | 6.0 | 0.00 | 0.01 | 0.01 | 65 | 1008.0 |
| 20260505231054 | 57 | 316 | 3.0 | 12.0 | 0.00 | 0.01 | 0.01 | 65 | 1007.8 |
| 20260505230556 | 58 | 335 | 3.0 | 12.0 | 0.00 | 0.01 | 0.01 | 65 | 1007.7 |
| 20260505230117 | 58 | 352 | 5.0 | 12.0 | 0.00 | 0.01 | 0.01 | 66 | 1007.6 |
| 20260505225557 | 59 | 306 | 4.0 | 8.0 | 0.00 | 0.01 | 0.01 | 65 | 1007.5 |
| 20260505225059 | 59 | 338 | 4.0 | 9.0 | 0.00 | 0.01 | 0.01 | 65 | 1007.2 |
| 20260505224600 | 59 | 338 | 3.0 | 9.0 | 0.00 | 0.01 | 0.01 | 65 | 1007.2 |
| 20260505224057 | 60 | 318 | 3.0 | 9.0 | 0.00 | 0.01 | 0.01 | 65 | 1007.2 |
| 20260505223556 | 60 | 329 | 4.0 | 9.0 | 0.00 | 0.01 | 0.01 | 63 | 1007.1 |
| 20260505223107 | 61 | 323 | 5.0 | 10.0 | 0.00 | 0.01 | 0.01 | 61 | 1007.1 |
| 20260505222557 | 61 | 331 | 3.0 | 10.0 | 0.00 | 0.01 | 0.01 | 59 | 1006.9 |
| 20260505222057 | 62 | 326 | 4.0 | 10.0 | 0.00 | 0.01 | 0.01 | 60 | 1006.7 |
| 20260505221600 | 62 | 326 | 4.0 | 9.0 | 0.00 | 0.01 | 0.01 | 59 | 1006.7 |
| 20260505221054 | 63 | 331 | 2.0 | 12.0 | 0.00 | 0.01 | 0.01 | 60 | 1006.5 |
| 20260505220557 | 63 | 321 | 4.0 | 12.0 | 0.00 | 0.01 | 0.01 | 60 | 1006.3 |
| 20260505220106 | 64 | 345 | 4.0 | 8.0 | 0.00 | 0.01 | 0.01 | 62 | 1006.1 |
| 20260505215557 | 64 | 335 | 3.0 | 6.0 | 0.00 | 0.01 | 0.01 | 62 | 1006.0 |
| 20260505215057 | 64 | 336 | 1.0 | 8.0 | 0.00 | 0.01 | 0.01 | 62 | 1005.7 |
| 20260505214607 | 64 | 295 | 3.0 | 9.0 | 0.00 | 0.01 | 0.01 | 63 | 1005.9 |
| 20260505214057 | 64 | 335 | 2.0 | 9.0 | 0.00 | 0.01 | 0.01 | 63 | 1005.9 |
| 20260505213557 | 64 | 267 | 3.0 | 9.0 | 0.00 | 0.01 | 0.01 | 63 | 1005.9 |
| 20260505213110 | 64 | 339 | 3.0 | 8.0 | 0.00 | 0.01 | 0.01 | 64 | 1005.9 |
| 20260505212557 | 64 | 318 | 3.0 | 8.0 | 0.00 | 0.01 | 0.01 | 64 | 1005.9 |
| 20260505212057 | 63 | 349 | 3.0 | 10.0 | 0.00 | 0.01 | 0.01 | 66 | 1005.7 |
| 20260505211631 | 63 | 345 | 3.0 | 10.0 | 0.00 | 0.01 | 0.01 | 66 | 1005.6 |
| 20260505211057 | 63 | 318 | 3.0 | 10.0 | 0.00 | 0.01 | 0.01 | 67 | 1005.5 |
| 20260505210554 | 63 | 267 | 3.0 | 7.0 | 0.00 | 0.01 | 0.01 | 68 | 1005.5 |
| 20260505210105 | 63 | 335 | 2.0 | 6.0 | 0.00 | 0.01 | 0.01 | 66 | 1005.3 |
| 20260505205555 | 64 | 336 | 3.0 | 12.0 | 0.00 | 0.01 | 0.01 | 66 | 1005.2 |
| 20260505205055 | 64 | 334 | 3.0 | 13.0 | 0.00 | 0.01 | 0.01 | 66 | 1005.1 |
| 20260505204558 | 65 | 326 | 5.0 | 13.0 | 0.00 | 0.01 | 0.01 | 64 | 1005.0 |
| 20260505204057 | 67 | 316 | 4.0 | 10.0 | 0.00 | 0.01 | 0.01 | 63 | 1004.9 |
| 20260505203601 | 67 | 288 | 3.0 | 9.0 | 0.00 | 0.01 | 0.01 | 62 | 1004.8 |
| 20260505203056 | 68 | 320 | 2.0 | 6.0 | 0.00 | 0.01 | 0.01 | 60 | 1004.7 |
| 20260505202557 | 69 | 339 | 3.0 | 10.0 | 0.00 | 0.01 | 0.01 | 58 | 1004.4 |
| 20260505202058 | 70 | 307 | 3.0 | 12.0 | 0.00 | 0.01 | 0.01 | 56 | 1004.5 |
| 20260505201606 | 72 | 348 | 6.0 | 12.0 | 0.00 | 0.01 | 0.01 | 54 | 1004.5 |
| 20260505201057 | 72 | 297 | 5.0 | 11.0 | 0.00 | 0.01 | 0.01 | 54 | 1004.2 |
| 20260505200557 | 72 | 293 | 6.0 | 13.0 | 0.00 | 0.01 | 0.01 | 55 | 1004.5 |
| 20260505200057 | 72 | 279 | 4.0 | 13.0 | 0.00 | 0.01 | 0.01 | 54 | 1004.4 |
| 20260505195557 | 72 | 293 | 5.0 | 12.0 | 0.00 | 0.01 | 0.01 | 53 | 1004.4 |
| 20260505195055 | 72 | 295 | 7.0 | 12.0 | 0.00 | 0.01 | 0.01 | 52 | 1004.4 |
| 20260505194558 | 72 | 285 | 5.0 | 12.0 | 0.00 | 0.01 | 0.01 | 54 | 1004.4 |
| 20260505194100 | 73 | 252 | 5.0 | 10.0 | 0.00 | 0.01 | 0.01 | 55 | 1004.5 |
| 20260505193555 | 73 | 283 | 4.0 | 9.0 | 0.00 | 0.01 | 0.01 | 56 | 1004.5 |
| 20260505193057 | 73 | 260 | 3.0 | 9.0 | 0.00 | 0.01 | 0.01 | 58 | 1004.4 |
| 20260505192601 | 73 | 274 | 4.0 | 9.0 | 0.00 | 0.01 | 0.01 | 58 | 1004.5 |
| 20260505192056 | 73 | 266 | 4.0 | 10.0 | 0.00 | 0.01 | 0.01 | 59 | 1004.4 |
| 20260505191605 | 73 | 245 | 6.0 | 10.0 | 0.00 | 0.01 | 0.01 | 59 | 1004.4 |
| 20260505191057 | 72 | 230 | 4.0 | 8.0 | 0.00 | 0.01 | 0.01 | 58 | 1004.4 |
| 20260505190558 | 72 | 246 | 5.0 | 8.0 | 0.00 | 0.01 | 0.01 | 61 | 1004.3 |
| 20260505190113 | 72 | 265 | 5.0 | 10.0 | 0.00 | 0.01 | 0.01 | 61 | 1004.4 |
| 20260505185557 | 71 | 269 | 5.0 | 10.0 | 0.00 | 0.01 | 0.01 | 61 | 1004.4 |
| 20260505185057 | 71 | 250 | 5.0 | 10.0 | 0.00 | 0.01 | 0.01 | 63 | 1004.4 |
| 20260505184606 | 71 | 170 | 6.0 | 12.0 | 0.01 | 0.01 | 0.01 | 63 | 1004.6 |
| 20260505184057 | 70 | 201 | 6.0 | 14.0 | 0.01 | 0.01 | 0.01 | 64 | 1004.5 |
| 20260505183557 | 69 | 128 | 6.0 | 14.0 | 0.01 | 0.01 | 0.01 | 66 | 1004.5 |
| 20260505183059 | 69 | 212 | 5.0 | 14.0 | 0.01 | 0.01 | 0.01 | 66 | 1004.7 |
| 20260505182557 | 68 | 179 | 8.0 | 14.0 | 0.01 | 0.01 | 0.01 | 67 | 1004.6 |
| 20260505182101 | 68 | 253 | 7.0 | 15.0 | 0.01 | 0.01 | 0.01 | 67 | 1004.7 |
| 20260505181602 | 68 | 229 | 6.0 | 15.0 | 0.01 | 0.01 | 0.01 | 68 | 1004.7 |
| 20260505181057 | 67 | 231 | 8.0 | 15.0 | 0.01 | 0.01 | 0.01 | 68 | 1004.6 |
| 20260505180555 | 67 | 228 | 6.0 | 12.0 | 0.01 | 0.01 | 0.01 | 68 | 1004.4 |
| 20260505180059 | 67 | 239 | 6.0 | 12.0 | 0.01 | 0.01 | 0.01 | 67 | 1004.5 |
| 20260505175556 | 68 | 230 | 6.0 | 15.0 | 0.01 | 0.01 | 0.01 | 67 | 1004.5 |
| 20260505175057 | 69 | 226 | 9.0 | 15.0 | 0.01 | 0.01 | 0.01 | 63 | 1004.5 |
| 20260505174557 | 70 | 250 | 7.0 | 12.0 | 0.00 | 0.00 | 0.00 | 60 | 1004.3 |
| 20260505174056 | 70 | 257 | 3.0 | 7.0 | 0.00 | 0.00 | 0.00 | 61 | 1004.2 |
| 20260505173556 | 70 | 274 | 3.0 | 8.0 | 0.00 | 0.00 | 0.00 | 59 | 1003.8 |
| 20260505173054 | 70 | 285 | 3.0 | 9.0 | 0.00 | 0.00 | 0.00 | 58 | 1003.7 |
| 20260505172557 | 70 | 248 | 3.0 | 9.0 | 0.00 | 0.00 | 0.00 | 58 | 1003.7 |
| 20260505172057 | 71 | 262 | 4.0 | 9.0 | 0.00 | 0.00 | 0.00 | 58 | 1003.7 |
| 20260505171555 | 71 | 288 | 5.0 | 10.0 | 0.00 | 0.00 | 0.00 | 57 | 1003.6 |
| 20260505171058 | 71 | 233 | 5.0 | 10.0 | 0.00 | 0.00 | 0.00 | 57 | 1003.7 |
| 20260505170604 | 72 | 270 | 6.0 | 13.0 | 0.00 | 0.00 | 0.00 | 54 | 1003.7 |
| 20260505170105 | 72 | 259 | 7.0 | 13.0 | 0.00 | 0.00 | 0.00 | 55 | 1003.4 |
| 20260505165557 | 72 | 233 | 6.0 | 11.0 | 0.00 | 0.00 | 0.00 | 54 | 1003.4 |
| 20260505165058 | 72 | 259 | 6.0 | 11.0 | 0.00 | 0.00 | 0.00 | 54 | 1003.4 |
| 20260505164554 | 72 | 258 | 4.0 | 11.0 | 0.00 | 0.00 | 0.00 | 55 | 1003.5 |
| 20260505164055 | 72 | 236 | 6.0 | 13.0 | 0.00 | 0.00 | 0.00 | 53 | 1003.5 |
| 20260505163558 | 72 | 226 | 8.0 | 13.0 | 0.00 | 0.00 | 0.00 | 53 | 1003.5 |
| 20260505163102 | 72 | 233 | 7.0 | 12.0 | 0.00 | 0.00 | 0.00 | 53 | 1003.4 |
| 20260505162556 | 72 | 257 | 6.0 | 15.0 | 0.00 | 0.00 | 0.00 | 54 | 1003.4 |
| 20260505162057 | 73 | 233 | 8.0 | 15.0 | 0.00 | 0.00 | 0.00 | 54 | 1003.4 |
| 20260505161555 | 73 | 224 | 4.0 | 14.0 | 0.00 | 0.00 | 0.00 | 54 | 1003.3 |
| 20260505161057 | 72 | 233 | 8.0 | 14.0 | 0.00 | 0.00 | 0.00 | 53 | 1003.3 |
| 20260505160559 | 72 | 248 | 9.0 | 14.0 | 0.00 | 0.00 | 0.00 | 53 | 1003.4 |
| 20260505153108 | 72 | 215 | 9.0 | 16.0 | 0.00 | 0.00 | 0.00 | 54 | 1003.5 |
| 20260505152557 | 72 | 253 | 6.0 | 16.0 | 0.00 | 0.00 | 0.00 | 56 | 1003.7 |
| 20260505152100 | 72 | 229 | 7.0 | 13.0 | 0.00 | 0.00 | 0.00 | 57 | 1003.6 |
| 20260505151554 | 71 | 223 | 5.0 | 12.0 | 0.00 | 0.00 | 0.00 | 57 | 1003.6 |
| 20260505151054 | 71 | 218 | 4.0 | 11.0 | 0.00 | 0.00 | 0.00 | 58 | 1003.6 |
| 20260505150557 | 71 | 208 | 5.0 | 11.0 | 0.00 | 0.00 | 0.00 | 57 | 1003.7 |
| 20260505150113 | 71 | 264 | 6.0 | 12.0 | 0.00 | 0.00 | 0.00 | 58 | 1003.8 |
| 20260505140557 | 71 | 262 | 10.0 | 16.0 | 0.00 | 0.00 | 0.00 | 57 | 1003.2 |
| 20260505140122 | 71 | 222 | 11.0 | 16.0 | 0.00 | 0.00 | 0.00 | 56 | 1003.1 |
| 20260505124604 | 68 | 224 | 7.0 | 15.0 | 0.00 | 0.00 | 0.00 | 62 | 1003.3 |
| 20260505124055 | 68 | 226 | 5.0 | 13.0 | 0.00 | 0.00 | 0.00 | 62 | 1003.3 |
| 20260505123600 | 68 | 217 | 6.0 | 14.0 | 0.00 | 0.00 | 0.00 | 61 | 1003.3 |
| 20260505123110 | 68 | 244 | 5.0 | 16.0 | 0.00 | 0.00 | 0.00 | 62 | 1003.3 |
| 20260505122555 | 67 | 246 | 8.0 | 16.0 | 0.00 | 0.00 | 0.00 | 62 | 1003.4 |
| 20260505122054 | 67 | 230 | 5.0 | 16.0 | 0.00 | 0.00 | 0.00 | 61 | 1003.3 |
| 20260505121600 | 67 | 205 | 5.0 | 13.0 | 0.00 | 0.00 | 0.00 | 63 | 1003.3 |
| 20260505121100 | 66 | 196 | 4.0 | 13.0 | 0.00 | 0.00 | 0.00 | 64 | 1003.4 |
| 20260505120555 | 66 | 181 | 4.0 | 16.0 | 0.00 | 0.00 | 0.00 | 64 | 1003.4 |
| 20260505120055 | 65 | 219 | 4.0 | 16.0 | 0.00 | 0.00 | 0.00 | 65 | 1003.5 |
| 20260505115557 | 65 | 146 | 4.0 | 16.0 | 0.00 | 0.00 | 0.00 | 66 | 1003.4 |
| 20260505115057 | 64 | 197 | 5.0 | 12.0 | 0.00 | 0.00 | 0.00 | 67 | 1003.4 |
| 20260505114603 | 64 | 207 | 4.0 | 12.0 | 0.00 | 0.00 | 0.00 | 67 | 1003.4 |
| 20260505114058 | 63 | 91 | 2.0 | 8.0 | 0.00 | 0.00 | 0.00 | 68 | 1003.1 |
| 20260505113557 | 63 | 226 | 2.0 | 8.0 | 0.00 | 0.00 | 0.00 | 68 | 1003.2 |
| 20260505113057 | 63 | 241 | 2.0 | 7.0 | 0.00 | 0.00 | 0.00 | 67 | 1003.3 |
| 20260505112555 | 63 | 0 | 2.0 | 7.0 | 0.00 | 0.00 | 0.00 | 67 | 1003.2 |
| 20260505112054 | 63 | 232 | 2.0 | 10.0 | 0.00 | 0.00 | 0.00 | 68 | 1003.1 |
| 20260505111600 | 62 | 139 | 2.0 | 10.0 | 0.00 | 0.00 | 0.00 | 68 | 1003.1 |
| 20260505111055 | 62 | 209 | 1.0 | 9.0 | 0.00 | 0.00 | 0.00 | 68 | 1003.1 |
| 20260505110555 | 62 | 147 | 0.0 | 9.0 | 0.00 | 0.00 | 0.00 | 69 | 1003.1 |
| 20260505102053 | 58 | 127 | 0.0 | 3.0 | 0.00 | 0.00 | 0.00 | 78 | 1002.6 |
| 20260505101554 | 58 | 0 | 0.0 | 0.0 | 0.00 | 0.00 | 0.00 | 79 | 1002.7 |
| 20260505101059 | 58 | 0 | 0.0 | 0.0 | 0.00 | 0.00 | 0.00 | 80 | 1002.6 |
| 20260505100555 | 58 | 0 | 0.0 | 0.0 | 0.00 | 0.00 | 0.00 | 80 | 1002.6 |
| 20260505100104 | 58 | 0 | 0.0 | 0.0 | 0.00 | 0.00 | 0.00 | 81 | 1002.6 |
| 20260505095554 | 58 | 0 | 0.0 | 0.0 | 0.00 | 0.00 | 0.00 | 81 | 1002.8 |
| 20260505095054 | 58 | 0 | 0.0 | 0.0 | 0.00 | 0.00 | 0.00 | 80 | 1002.7 |
| 20260505094557 | 58 | 0 | 0.0 | 0.0 | 0.00 | 0.00 | 0.00 | 79 | 1002.8 |
| 20260505094054 | 58 | 0 | 0.0 | 0.0 | 0.00 | 0.00 | 0.00 | 79 | 1002.9 |
| 20260505093558 | 59 | 0 | 0.0 | 1.0 | 0.00 | 0.00 | 0.00 | 78 | 1002.8 |
| 20260505093056 | 59 | 0 | 0.0 | 1.0 | 0.00 | 0.00 | 0.00 | 78 | 1002.7 |
| 20260505092557 | 59 | 0 | 0.0 | 1.0 | 0.00 | 0.00 | 0.00 | 77 | 1002.8 |
| 20260505092054 | 60 | 0 | 0.0 | 1.0 | 0.00 | 0.00 | 0.00 | 75 | 1002.9 |
| 20260505091554 | 60 | 0 | 0.0 | 1.0 | 0.00 | 0.00 | 0.00 | 75 | 1002.9 |
| 20260505091051 | 61 | 0 | 0.0 | 2.0 | 0.00 | 0.00 | 0.00 | 74 | 1003.0 |
| 20260505090555 | 61 | 0 | 0.0 | 3.0 | 0.00 | 0.00 | 0.00 | 74 | 1003.1 |
| 20260505090107 | 61 | 0 | 0.0 | 5.0 | 0.00 | 0.00 | 0.00 | 73 | 1003.2 |
| 20260505085553 | 61 | 225 | 2.0 | 5.0 | 0.00 | 0.00 | 0.00 | 73 | 1003.0 |
| 20260505085056 | 62 | 207 | 3.0 | 6.0 | 0.00 | 0.00 | 0.00 | 73 | 1003.0 |
| 20260505084555 | 62 | 221 | 1.0 | 7.0 | 0.00 | 0.00 | 0.00 | 72 | 1002.9 |
| 20260505084054 | 62 | 221 | 3.0 | 7.0 | 0.00 | 0.00 | 0.00 | 72 | 1003.0 |
| 20260505083554 | 62 | 238 | 3.0 | 7.0 | 0.00 | 0.00 | 0.00 | 71 | 1003.1 |
| 20260505083108 | 63 | 210 | 2.0 | 7.0 | 0.00 | 0.00 | 0.00 | 68 | 1003.2 |
| 20260505082557 | 63 | 203 | 2.0 | 7.0 | 0.00 | 0.00 | 0.00 | 67 | 1003.0 |
| 20260505082057 | 63 | 0 | 0.0 | 6.0 | 0.00 | 0.00 | 0.00 | 65 | 1002.9 |
| 20260505081555 | 63 | 126 | 1.0 | 8.0 | 0.00 | 0.00 | 0.00 | 65 | 1002.9 |
| 20260505081057 | 64 | 122 | 1.0 | 12.0 | 0.00 | 0.00 | 0.00 | 64 | 1003.1 |
| 20260505080557 | 64 | 233 | 3.0 | 12.0 | 0.00 | 0.00 | 0.00 | 64 | 1003.3 |
| 20260505080057 | 64 | 194 | 5.0 | 12.0 | 0.00 | 0.00 | 0.00 | 63 | 1003.5 |
| 20260505075557 | 64 | 235 | 3.0 | 12.0 | 0.00 | 0.00 | 0.00 | 63 | 1003.4 |
| 20260505075057 | 63 | 157 | 3.0 | 8.0 | 0.00 | 0.00 | 0.00 | 64 | 1003.3 |
| 20260505074557 | 63 | 214 | 2.0 | 9.0 | 0.00 | 0.00 | 0.00 | 64 | 1003.3 |
| 20260505074055 | 63 | 172 | 3.0 | 9.0 | 0.00 | 0.00 | 0.00 | 65 | 1003.3 |
| 20260505073557 | 62 | 153 | 1.0 | 5.0 | 0.00 | 0.00 | 0.00 | 66 | 1003.3 |
| 20260505073100 | 62 | 0 | 1.0 | 5.0 | 0.00 | 0.00 | 0.00 | 67 | 1003.2 |
| 20260505072557 | 62 | 213 | 1.0 | 5.0 | 0.00 | 0.00 | 0.00 | 68 | 1003.3 |
| 20260505072057 | 62 | 136 | 1.0 | 5.0 | 0.00 | 0.00 | 0.00 | 69 | 1003.2 |
| 20260505071559 | 62 | 148 | 1.0 | 6.0 | 0.00 | 0.00 | 0.00 | 70 | 1003.2 |
| 20260505071059 | 61 | 76 | 1.0 | 6.0 | 0.00 | 0.00 | 0.00 | 70 | 1003.2 |
| 20260505070557 | 61 | 208 | 1.0 | 6.0 | 0.00 | 0.00 | 0.00 | 70 | 1003.3 |
| 20260505070100 | 61 | 165 | 2.0 | 5.0 | 0.00 | 0.00 | 0.00 | 70 | 1003.3 |
| 20260505065557 | 61 | 115 | 1.0 | 6.0 | 0.00 | 0.00 | 0.00 | 70 | 1003.2 |
| 20260505065057 | 61 | 210 | 1.0 | 6.0 | 0.00 | 0.00 | 0.00 | 70 | 1003.2 |
| 20260505064558 | 61 | 0 | 0.0 | 4.0 | 0.00 | 0.00 | 0.00 | 69 | 1003.1 |
| 20260505064057 | 61 | 0 | 0.0 | 7.0 | 0.00 | 0.00 | 0.00 | 68 | 1003.1 |
| 20260505063555 | 62 | 219 | 3.0 | 7.0 | 0.00 | 0.00 | 0.00 | 68 | 1003.0 |
| 20260505063101 | 62 | 122 | 2.0 | 7.0 | 0.00 | 0.00 | 0.00 | 67 | 1002.9 |
| 20260505062555 | 62 | 229 | 1.0 | 10.0 | 0.00 | 0.00 | 0.00 | 66 | 1002.9 |
| 20260505062055 | 62 | 135 | 3.0 | 10.0 | 0.00 | 0.00 | 0.00 | 65 | 1002.9 |
| 20260505061601 | 62 | 239 | 4.0 | 10.0 | 0.00 | 0.00 | 0.00 | 64 | 1003.0 |
| 20260505061054 | 62 | 120 | 3.0 | 10.0 | 0.00 | 0.00 | 0.00 | 63 | 1002.9 |
| 20260505060557 | 62 | 218 | 4.0 | 10.0 | 0.00 | 0.00 | 0.00 | 62 | 1003.0 |
| 20260505055554 | 62 | 0 | 2.0 | 5.0 | 0.00 | 0.00 | 0.00 | 59 | 1003.1 |
| 20260505055100 | 62 | 134 | 0.0 | 8.0 | 0.00 | 0.00 | 0.00 | 59 | 1003.1 |
| 20260505054559 | 62 | 153 | 1.0 | 8.0 | 0.00 | 0.00 | 0.00 | 59 | 1003.2 |
| 20260505054058 | 61 | 205 | 1.0 | 6.0 | 0.00 | 0.00 | 0.00 | 59 | 1003.0 |
| 20260505053554 | 61 | 229 | 0.0 | 4.0 | 0.00 | 0.00 | 0.00 | 58 | 1003.1 |
| 20260505053058 | 61 | 0 | 0.0 | 2.0 | 0.00 | 0.00 | 0.00 | 58 | 1003.1 |
| 20260505052559 | 61 | 0 | 0.0 | 2.0 | 0.00 | 0.00 | 0.00 | 58 | 1003.3 |
| 20260505052058 | 62 | 0 | 0.0 | 3.0 | 0.00 | 0.00 | 0.00 | 57 | 1003.3 |
| 20260505051556 | 62 | 124 | 0.0 | 5.0 | 0.00 | 0.00 | 0.00 | 57 | 1003.3 |
| 20260505051052 | 62 | 139 | 1.0 | 5.0 | 0.00 | 0.00 | 0.00 | 57 | 1003.3 |
| 20260505050554 | 62 | 233 | 0.0 | 4.0 | 0.00 | 0.00 | 0.00 | 58 | 1003.3 |
| 20260505050126 | 62 | 96 | 0.0 | 8.0 | 0.00 | 0.00 | 0.00 | 59 | 1003.3 |
| 20260505041605 | 58 | 124 | 0.0 | 1.0 | 0.00 | 0.00 | 0.00 | 61 | 1003.3 |
| 20260505041054 | 57 | 118 | 0.0 | 1.0 | 0.00 | 0.00 | 0.00 | 63 | 1003.2 |
| 20260505040557 | 56 | 0 | 0.0 | 1.0 | 0.00 | 0.00 | 0.00 | 66 | 1003.1 |
| 20260505035602 | 54 | 0 | 0.0 | 0.0 | 0.00 | 0.00 | 0.00 | 71 | 1003.1 |
| 20260505035055 | 53 | 0 | 0.0 | 0.0 | 0.00 | 0.00 | 0.00 | 73 | 1003.1 |
| 20260505034553 | 52 | 0 | 0.0 | 0.0 | 0.00 | 0.00 | 0.00 | 77 | 1003.2 |
| 20260505034056 | 51 | 0 | 0.0 | 0.0 | 0.00 | 0.00 | 0.00 | 79 | 1003.1 |
| 20260505033552 | 51 | 0 | 0.0 | 0.0 | 0.00 | 0.00 | 0.00 | 79 | 1003.2 |
| 20260505033054 | 51 | 0 | 0.0 | 0.0 | 0.00 | 0.00 | 0.00 | 79 | 1003.1 |
| 20260505032555 | 51 | 0 | 0.0 | 0.0 | 0.00 | 0.00 | 0.00 | 78 | 1003.1 |
| 20260505032057 | 51 | 0 | 0.0 | 0.0 | 0.00 | 0.00 | 0.00 | 78 | 1003.1 |
| 20260505031559 | 51 | 0 | 0.0 | 0.0 | 0.00 | 0.00 | 0.00 | 77 | 1003.3 |
| 20260505031054 | 52 | 0 | 0.0 | 0.0 | 0.00 | 0.00 | 0.00 | 77 | 1003.2 |
| 20260505030555 | 52 | 0 | 0.0 | 0.0 | 0.00 | 0.00 | 0.00 | 77 | 1003.2 |
| 20260505030055 | 52 | 0 | 0.0 | 0.0 | 0.00 | 0.00 | 0.00 | 77 | 1003.2 |